Location: Plum
(40.5000°N, 79.7500°W)
Time: 21:41:06
(UTC-04:00)

MOZ.5/SAFIR/RUBIN 5/SL-8 - Visible Passes

Search period start: 26 June 2017 00:00
Search period end: 06 July 2017 00:00
Orbit: 678 x 707 km, 97.9° (Epoch: 26 June)

Date Brightness Start Highest point End Pass type
(mag) Time Alt. Az. Time Alt. Az. Time Alt. Az.
26 Jun 5.8 03:22:52 10° SE 03:26:49 27° ENE 03:30:44 10° NNE visible
26 Jun 4.6 05:00:02 10° SSW 05:04:15 31° W 05:08:28 10° NNW visible
27 Jun 4.2 04:01:36 10° SSE 04:06:18 66° ENE 04:11:00 10° N visible
28 Jun 6.4 03:05:37 10° ESE 03:08:49 18° ENE 03:12:00 10° NNE visible
28 Jun 4.1 04:41:26 10° S 04:46:00 48° W 04:50:35 10° NNW visible
29 Jun 4.9 03:43:44 10° SE 03:48:11 43° ENE 03:52:39 10° N visible
30 Jun 6.6 02:48:59 10° E 02:50:52 12° ENE 02:52:45 10° NE visible
30 Jun 3.7 04:23:04 10° S 04:27:48 75° WSW 04:32:32 10° NNW visible
01 Jul 5.7 03:26:06 10° SE 03:30:08 29° ENE 03:34:10 10° N visible
01 Jul 4.7 05:03:33 10° SSW 05:07:37 29° W 05:11:43 10° NW visible
02 Jul 4.0 04:04:57 10° SSE 04:09:39 72° ENE 04:14:21 10° N visible
03 Jul 6.2 03:08:46 10° ESE 03:12:07 20° ENE 03:15:29 10° NNE visible
03 Jul 4.2 04:44:53 10° S 04:49:22 43° W 04:53:52 10° NNW visible
04 Jul 4.8 03:47:01 10° SE 03:51:31 47° ENE 03:56:02 10° N visible
05 Jul 6.6 02:51:56 10° E 02:54:09 13° ENE 02:56:23 10° NE visible
05 Jul 3.7 04:26:28 10° S 04:31:10 68° W 04:35:50 10° NNW visible
